User: anonymous   Login
Location: Newark
(35.8833°N, 14.5000°E)
Time: 12:31:36
(UTC+00:00)
Language:

AO-91 - Orbit

View from above orbital plane
View from above orbital plane
View from above satellite
View from above satellite

Ground track
Ground track

The orbit data is extracted from the following two-line orbital elements,

1 43017U 17073E   19138.19596377  .00000373  00000-0  35294-4 0  9992
2 43017  97.7238  60.7858 0256817 260.9635  96.2435 14.78524457 80607
Epoch (UTC): 18 May 2019 04:42:11
Eccentricity: 0.0256817
inclination: 97.7238°
perigee height: 454 km
apogee height: 814 km
right ascension of ascending node: 60.7858°
argument of perigee: 260.9635°
revolutions per day: 14.78524457
mean anomaly at epoch: 96.2435°
orbit number at epoch: 8060

The dashed part of the orbit path shows where the satellite is in the earth's shadow,  

DLR